AirNav   ATP
 
 697 users online  

D98 Romeo State Airport
Romeo, Michigan, USA

GOING TO ROMEO?


FAA INFORMATION EFFECTIVE 11 OCTOBER 2018

Location

FAA Identifier: D98
Lat/Long: 42-47-46.8030N / 082-58-27.3360W
42-47.780050N / 082-58.455600W
42.7963342 / -82.9742600
(estimated)
Elevation: 738.5 ft. / 225.1 m (surveyed)
Variation: 06W (1985)
From city: 2 miles E of ROMEO, MI
Time zone: UTC -4 (UTC -5 during Standard Time)
Zip code: 48095

Airport Operations

Airport use: Open to the public
Activation date: 02/1947
Control tower: no
ARTCC: CLEVELAND CENTER
FSS: LANSING FLIGHT SERVICE STATION
NOTAMs facility: LAN (NOTAM-D service available)
Attendance: MON-FRI 0800-1600
Wind indicator: lighted
Segmented circle: no
Lights: ACTVT MIRL, PAPI, REIL RY 18/36 - CTAF.
Beacon: white-green (lighted land airport)
Operates sunset to sunrise.

Airport Communications

CTAF/UNICOM: 122.8
SELFRIDGE APPROACH: 119.6
SELFRIDGE DEPARTURE: 119.6
WX AWOS-3 at VLL (18 nm SW): 119.475 (248-288-4649)
  • APCH/DEP SERVICE PROVIDED BY CLEVELAND ARTCC (ZOB) ON FREQS 127.7/290.425 (FLINT RCAG) OR CALL CLEVELAND ARTCC (ZOB) 440-774-0386 WHEN SELFRIDGE (MTC) APCH CTL CLSD.

Nearby radio navigation aids

VOR radial/distance  VOR name  Freq  Var
YQGr355/33.4WINDSOR VOR/DME113.8006W
FNTr113/35.5FLINT VORTAC116.9006W
SVMr053/35.9SALEM VORTAC114.3003W
DXOr032/39.1DETROIT VOR/DME113.4006W

Airport Services

Fuel available: 100LL JET-A
24 HR SELF SVC.
24 HR SELF SVC.
Parking: hangars and tiedowns
Airframe service: NONE
Powerplant service: NONE
Bottled oxygen: NONE
Bulk oxygen: NONE

Runway Information

Runway 18/36

Dimensions: 4000 x 75 ft. / 1219 x 23 m
Surface: asphalt, in fair condition
Runway edge lights: medium intensity
RUNWAY 18  RUNWAY 36
Latitude: 42-48.109163N42-47.451198N
Longitude: 082-58.473767W082-58.436265W
Elevation: 737.7 ft.728.3 ft.
Traffic pattern: leftleft
Runway heading: 184 magnetic, 178 true004 magnetic, 358 true
Displaced threshold: 470 ft.no
Markings: nonprecision, in fair conditionnonprecision, in fair condition
Visual slope indicator: 4-light PAPI on left (3.00 degrees glide path)
PAPI RWY 18 OUT OF SERVICE INDEFINITELY.
4-light PAPI on left (3.00 degrees glide path)
Runway end identifier lights: yesyes
Touchdown point: yes, no lightsyes, no lights
Obstructions: 77 ft. trees, 1030 ft. from runway, 80 ft. left of centerline, 10:1 slope to clear
APCH RATIO 21:1 AT DSPLCD THLD.
13 ft. road, 358 ft. from runway, 12:1 slope to clear
APCH RATIO 27:1 FROM THLD.

Airport Ownership and Management from official FAA records

Ownership: Publicly-owned
Owner: STATE OF MICHIGAN
2700 PORT LANSING RD
LANSING, MI 48906
Phone (517) 335-9841
Manager: DONALD SCHORSCH
15340 32 MILE RD.
RAY, MI 48096
Phone 586-336-9116
586-337-5084 MGR CELL.

Airport Operational Statistics

Aircraft based on the field: 38
Single engine airplanes: 34
Multi engine airplanes: 4
    
Aircraft operations: avg 41/day *
50% transient general aviation
50% local general aviation
* for 12-month period ending 31 December 2015

Additional Remarks

DEER & BIRDS INVOF RY.
RY SFC COND UNMONITORED BTN 2100-1300Z++.
APCH/DEP SERVICE PROVIDED BY CLEVELAND ARTCC (ZOB) ON FREQS 127.7/290.425 (FLINT RCAG) OR CALL CLEVELAND ARTCC (ZOB) 440-774-0386 WHEN SELFRIDGE (MTC) APCH CTL CLSD.

Instrument Procedures

NOTE: All procedures below are presented as PDF files. If you need a reader for these files, you should download the free Adobe Reader.

NOT FOR NAVIGATION. Please procure official charts for flight.
FAA instrument procedures published for use from 11 October 2018 at 0901Z to 8 November 2018 at 0900Z.

 
IAPs - Instrument Approach Procedures
RNAV (GPS) RWY 18   download (188KB)
RNAV (GPS) RWY 36   download (191KB)
NOTE: Special Take-Off Minimums/Departure Procedures apply   download (122KB)

Other nearby airports with instrument procedures:

57D - Ray Community Airport (5 nm SE)
KMTC - Selfridge Air National Guard Base (13 nm SE)
KVLL - Oakland/Troy Airport (18 nm SW)
KPHN - St Clair County International Airport (21 nm E)
D95 - Dupont-Lapeer Airport (21 nm NW)
 
Loc | Ops | Rwys | IFR | FBO | Links
Com | Nav | Svcs | Stats | Notes


 
Area around D98 (Romeo State Airport)
 
Road maps at: MapQuest Bing Google
 
Aerial photo
WARNING: Photo may not be current or correct
Aerial photo of D98 (Romeo State Airport)
Do you have a better or more recent aerial photo of Romeo State Airport that you would like to share? If so, please send us your photo.

 
Sectional chart

 
Airport distance calculator
Flying to Romeo State Airport? Find the distance to fly.

From to D98

Sunrise and sunset
Times for 22-Oct-2018
 Local
(UTC-4)
 Zulu
(UTC)
Morning civil twilight07:2611:26
Sunrise07:5511:55
Sunset18:3822:38
Evening civil twilight19:0723:07

Current date and time
Zulu (UTC)  23-Oct-2018 03:55:50
Local (UTC-4)  22-Oct-2018 23:55:50
 
METAR
KMTC 
13nm SE 
230255Z 22004KT 12SM CLR 07/04 A2998 RMK AO2A SLP160 T00660036 54000 $
KVLL 
18nm SW 
230335Z AUTO 24004KT 10SM CLR 08/02 A3001 RMK AO2 T00780016
KD95 
21nm NW 
230335Z AUTO 23003KT 10SM CLR 02/01 A2998 RMK AO2 T00210011
KPTK 
21nm W 
230253Z 25004KT 10SM CLR 06/03 A2999 RMK AO2 SLP161 T00560028 51003
KPHN 
21nm E 
230335Z AUTO 00000KT 10SM BKN055 01/01 A2998 RMK AO2
KDET 
24nm S 
230253Z 24005KT 10SM CLR 08/03 A3001 RMK AO2 SLP164 T00780028 50001
TAF
KMTC 
13nm SE 
230100Z 2301/2407 22006KT 9999 FEW075 FEW200 QNH2995INS BECMG 2306/2307 24006KT 4800 BR SKC QNH2991INS BECMG 2309/2310 26012KT 9999 NSW SCT035 QNH2991INS BECMG 2313/2314 31015G25KT 9999 SCT025 BKN035 620353 QNH3000INS BECMG 2402/2403 31012KT 9999 SCT030 QNH3025INS TX09/2317Z TN04/2308Z LAST NO AMDS AFT 2303 NEXT 2309
NOTAMs
Click for the latest NOTAMs
NOTAMs are issued by the DoD/FAA and will open in a separate window not controlled by AirNav.

 

 
 

FBO, Fuel Providers, and Aircraft Ground Support

  
 Business Name 
 
 Contact 
 
 Services / Description 
 
Fuel Prices
 
Comments
  
Romeo Airport Management 586-336-9116
[email]
Airport management, Aviation fuel, Hangars, Hangar leasing / sales, Passenger terminal and lounge, Flight training

More info about Romeo Airport Management
Avfuel
100LL Jet A
SS $4.98 $4.40 
 Updated 11-Oct-2018
 
   write
SS=Self service
Update Fuel Prices
 

Would you like to see your business listed on this page?

 If your business provides an interesting product or service to pilots, flight crews, aircraft, or users of the Romeo State Airport, you should consider listing it here.  To start the listing process, click on the button below
 
Add a business
 

Other Pages about Romeo State Airport

Page from the Michigan Airport Directory (PDF)
 
Update a link
 
Copyright © AirNav, LLC. All rights reserved. Privacy Policy  Contact